FW9639 Weather Reports


time (UTC)temp
C
wind
direction
speed
KPH
gust
KPH
rain 1hr
cm
rain 24hr
cm
rain mn
cm
humidity
%
barometer
mb
20260508005510 33 268 1.6 11.3 0.00 0.00 0.00 9 1007.6
20260508005008 33 272 3.2 11.3 0.00 0.00 0.00 9 1007.5
20260508004528 33 0 4.8 16.1 0.00 0.00 0.00 9 1007.5
20260508004013 33 269 8.0 17.7 0.00 0.00 0.00 9 1007.6
20260508003510 34 269 8.0 17.7 0.00 0.00 0.00 9 1007.4
20260508003026 34 267 3.2 12.9 0.00 0.00 0.00 9 1007.5
20260508002508 34 271 1.6 12.9 0.00 0.00 0.00 10 1007.5
20260508002010 34 285 3.2 17.7 0.00 0.00 0.00 10 1007.5
20260508001528 34 318 8.0 17.7 0.00 0.00 0.00 10 1007.6
20260508001010 35 327 8.0 17.7 0.00 0.00 0.00 9 1007.5
20260508000514 35 174 4.8 12.9 0.00 0.00 0.00 9 1007.7
20260508000027 35 291 3.2 14.5 0.00 0.00 0.00 10 1007.7
20260507235509 35 258 3.2 16.1 0.00 0.00 0.00 9 1007.6
20260507235010 35 288 8.0 16.1 0.00 0.00 0.00 10 1007.7
20260507234535 35 304 6.4 12.9 0.00 0.00 0.00 10 1007.5
20260507234010 35 301 1.6 11.3 0.00 0.00 0.00 10 1007.5
20260507233510 35 289 3.2 14.5 0.00 0.00 0.00 10 1007.6
20260507233029 35 271 1.6 14.5 0.00 0.00 0.00 10 1007.5
20260507232512 35 0 1.6 9.7 0.00 0.00 0.00 10 1007.6
20260507232011 34 0 3.2 9.7 0.00 0.00 0.00 10 1007.6
20260507231529 34 351 1.6 12.9 0.00 0.00 0.00 10 1007.5
20260507231011 35 0 3.2 19.3 0.00 0.00 0.00 10 1007.8
20260507230510 35 350 3.2 19.3 0.00 0.00 0.00 10 1007.8
20260507230029 35 283 6.4 20.9 0.00 0.00 0.00 10 1007.8
20260507225512 35 338 6.4 20.9 0.00 0.00 0.00 11 1007.9
20260507225010 35 331 4.8 17.7 0.00 0.00 0.00 11 1007.8
20260507224530 35 344 4.8 17.7 0.00 0.00 0.00 10 1007.9
20260507224008 35 0 3.2 11.3 0.00 0.00 0.00 10 1007.9
20260507223511 35 331 1.6 8.0 0.00 0.00 0.00 10 1008.0
20260507223029 35 0 0.0 22.5 0.00 0.00 0.00 10 1008.1
20260507222511 35 15 6.4 22.5 0.00 0.00 0.00 10 1008.1
20260507222011 35 360 9.7 20.9 0.00 0.00 0.00 9 1008.2
20260507221527 35 341 3.2 17.7 0.00 0.00 0.00 10 1008.1
20260507221009 35 284 8.0 17.7 0.00 0.00 0.00 10 1008.2
20260507220510 35 287 8.0 19.3 0.00 0.00 0.00 10 1008.1
20260507220029 35 329 9.7 19.3 0.00 0.00 0.00 10 1008.3
20260507215510 35 307 6.4 16.1 0.00 0.00 0.00 9 1008.4
20260507215009 35 250 1.6 14.5 0.00 0.00 0.00 10 1008.5
20260507214530 35 261 4.8 14.5 0.00 0.00 0.00 10 1008.6
20260507214009 35 246 3.2 11.3 0.00 0.00 0.00 10 1008.5
20260507213510 35 168 3.2 11.3 0.00 0.00 0.00 10 1008.7
20260507213030 35 23 0.0 8.0 0.00 0.00 0.00 10 1008.7
20260507212509 35 0 3.2 8.0 0.00 0.00 0.00 9 1008.8
20260507212011 35 324 3.2 8.0 0.00 0.00 0.00 9 1009.0
20260507211528 35 311 1.6 8.0 0.00 0.00 0.00 10 1009.0
20260507211008 35 145 3.2 12.9 0.00 0.00 0.00 9 1009.1
20260507210515 35 0 3.2 12.9 0.00 0.00 0.00 10 1009.1
20260507210029 35 5 4.8 12.9 0.00 0.00 0.00 10 1009.1
20260507205509 34 175 1.6 12.9 0.00 0.00 0.00 10 1009.3
20260507205010 34 167 4.8 12.9 0.00 0.00 0.00 9 1009.3
20260507204527 35 360 0.0 9.7 0.00 0.00 0.00 8 1009.3
20260507204010 34 5 3.2 16.1 0.00 0.00 0.00 10 1009.5
20260507203510 34 355 3.2 16.1 0.00 0.00 0.00 10 1009.6
20260507203028 34 355 9.7 16.1 0.00 0.00 0.00 10 1009.6
20260507202509 34 298 3.2 11.3 0.00 0.00 0.00 11 1009.6
20260507202013 33 90 1.6 11.3 0.00 0.00 0.00 11 1009.7
20260507201536 33 0 3.2 11.3 0.00 0.00 0.00 12 1009.8
20260507201009 33 107 1.6 11.3 0.00 0.00 0.00 12 1009.9
20260507200510 33 0 4.8 12.9 0.00 0.00 0.00 11 1009.9
20260507200029 33 92 4.8 12.9 0.00 0.00 0.00 12 1010.1
20260507195510 33 5 1.6 8.0 0.00 0.00 0.00 12 1010.1
20260507195010 33 119 0.0 6.4 0.00 0.00 0.00 12 1010.2
20260507194527 33 119 1.6 6.4 0.00 0.00 0.00 13 1010.3
20260507194012 33 117 3.2 8.0 0.00 0.00 0.00 12 1010.5
20260507193509 33 114 3.2 12.9 0.00 0.00 0.00 13 1010.5
20260507193030 33 0 3.2 12.9 0.00 0.00 0.00 13 1010.6
20260507192509 33 9 4.8 14.5 0.00 0.00 0.00 13 1010.7
20260507192009 34 13 3.2 14.5 0.00 0.00 0.00 13 1010.7
20260507191529 33 284 1.6 9.7 0.00 0.00 0.00 14 1010.8
20260507191010 33 284 3.2 8.0 0.00 0.00 0.00 15 1010.8
20260507190509 32 304 3.2 12.9 0.00 0.00 0.00 15 1011.0
20260507190030 32 355 3.2 12.9 0.00 0.00 0.00 15 1011.1
20260507185511 32 355 4.8 19.3 0.00 0.00 0.00 15 1011.1
20260507185009 32 12 0.0 19.3 0.00 0.00 0.00 16 1011.2
20260507184528 31 23 4.8 16.1 0.00 0.00 0.00 16 1011.3
20260507184011 31 5 1.6 8.0 0.00 0.00 0.00 16 1011.3
20260507183507 31 5 3.2 8.0 0.00 0.00 0.00 16 1011.4
20260507183036 31 333 4.8 8.0 0.00 0.00 0.00 16 1011.4
20260507182511 31 0 1.6 4.8 0.00 0.00 0.00 17 1011.4
20260507182013 31 0 0.0 6.4 0.00 0.00 0.00 17 1011.6
20260507181529 30 334 0.0 8.0 0.00 0.00 0.00 18 1011.6
20260507181010 30 334 3.2 12.9 0.00 0.00 0.00 18 1011.7
20260507180509 30 335 4.8 12.9 0.00 0.00 0.00 18 1011.8
20260507180027 30 334 4.8 11.3 0.00 0.00 0.00 17 1011.7
20260507175510 30 360 4.8 16.1 0.00 0.00 0.00 18 1011.7
20260507175009 30 21 3.2 16.1 0.00 0.00 0.00 18 1011.9
20260507174533 30 28 6.4 16.1 0.00 0.00 0.00 18 1011.9
20260507174011 30 24 1.6 9.7 0.00 0.00 0.00 18 1011.8
20260507173507 30 24 3.2 8.0 0.00 0.00 0.00 18 1012.0
20260507173033 30 0 1.6 8.0 0.00 0.00 0.00 18 1012.1
20260507172509 30 26 1.6 6.4 0.00 0.00 0.00 18 1012.2
20260507172010 30 0 0.0 6.4 0.00 0.00 0.00 19 1012.0
20260507171531 29 24 1.6 8.0 0.00 0.00 0.00 19 1012.2
20260507171010 29 32 1.6 8.0 0.00 0.00 0.00 19 1012.3
20260507170511 29 16 1.6 8.0 0.00 0.00 0.00 19 1012.2
20260507170028 28 119 1.6 6.4 0.00 0.00 0.00 20 1012.3
20260507165511 28 119 0.0 6.4 0.00 0.00 0.00 19 1012.2
20260507165009 28 115 0.0 6.4 0.00 0.00 0.00 19 1012.4
20260507164526 28 115 1.6 6.4 0.00 0.00 0.00 19 1012.3
20260507164007 27 161 0.0 3.2 0.00 0.00 0.00 20 1012.4
20260507163509 27 0 0.0 6.4 0.00 0.00 0.00 20 1012.4
20260507163028 27 0 0.0 6.4 0.00 0.00 0.00 20 1012.4
20260507162508 27 171 0.0 6.4 0.00 0.00 0.00 20 1012.6
20260507162011 27 0 0.0 6.4 0.00 0.00 0.00 20 1012.6
20260507161530 27 171 0.0 6.4 0.00 0.00 0.00 20 1012.7
20260507161007 27 171 0.0 6.4 0.00 0.00 0.00 21 1012.7
20260507160514 27 172 1.6 4.8 0.00 0.00 0.00 21 1012.7
20260507160034 26 0 0.0 4.8 0.00 0.00 0.00 21 1012.7
20260507155517 26 0 0.0 4.8 0.00 0.00 0.00 21 1012.7
20260507155010 26 173 0.0 4.8 0.00 0.00 0.00 21 1012.7
20260507154528 25 0 0.0 4.8 0.00 0.00 0.00 22 1012.7
20260507154012 25 173 0.0 4.8 0.00 0.00 0.00 22 1012.8
20260507153510 25 175 0.0 3.2 0.00 0.00 0.00 22 1012.8
20260507153032 25 0 0.0 4.8 0.00 0.00 0.00 22 1012.9
20260507152510 25 174 0.0 4.8 0.00 0.00 0.00 22 1012.8
20260507152011 25 0 0.0 3.2 0.00 0.00 0.00 21 1012.8
20260507151528 24 0 0.0 3.2 0.00 0.00 0.00 22 1012.9
20260507151010 23 0 0.0 1.6 0.00 0.00 0.00 22 1012.9
20260507150516 23 0 0.0 1.6 0.00 0.00 0.00 23 1012.8
20260507150030 23 0 0.0 1.6 0.00 0.00 0.00 23 1012.9
20260507145511 23 0 0.0 3.2 0.00 0.00 0.00 23 1012.9
20260507145014 22 178 0.0 4.8 0.00 0.00 0.00 23 1012.7
20260507144530 22 0 0.0 4.8 0.00 0.00 0.00 24 1012.8
20260507144013 22 0 0.0 3.2 0.00 0.00 0.00 25 1012.8
20260507143514 21 148 0.0 1.6 0.00 0.00 0.00 25 1012.8
20260507143048 21 0 0.0 1.6 0.00 0.00 0.00 26 1012.9
20260507142513 20 0 0.0 1.6 0.00 0.00 0.00 26 1012.9
20260507142011 20 0 0.0 1.6 0.00 0.00 0.00 27 1012.9
20260507141538 19 0 0.0 3.2 0.00 0.00 0.00 29 1012.9
20260507141012 18 0 0.0 3.2 0.00 0.00 0.00 29 1012.9
20260507140513 18 0 0.0 4.8 0.00 0.00 0.00 30 1012.9
20260507140030 18 0 0.0 4.8 0.00 0.00 0.00 31 1012.9
20260507135510 17 146 1.6 4.8 0.00 0.00 0.00 32 1012.8
20260507135010 16 0 0.0 3.2 0.00 0.00 0.00 33 1012.7
20260507134528 16 0 0.0 4.8 0.00 0.00 0.00 34 1012.5
20260507134011 15 0 0.0 4.8 0.00 0.00 0.00 35 1012.5
20260507133513 15 294 0.0 4.8 0.00 0.00 0.00 35 1012.4
20260507133028 14 294 0.0 1.6 0.00 0.00 0.00 37 1012.4
20260507132511 14 0 0.0 0.0 0.00 0.00 0.00 37 1012.4
20260507132012 13 0 0.0 0.0 0.00 0.00 0.00 37 1012.3
20260507131527 13 0 0.0 0.0 0.00 0.00 0.00 39 1012.3
20260507131012 13 0 0.0 1.6 0.00 0.00 0.00 39 1012.2
20260507130511 13 0 0.0 1.6 0.00 0.00 0.00 41 1012.2
20260507130038 13 0 0.0 1.6 0.00 0.00 0.00 41 1012.2
20260507125521 13 0 0.0 1.6 0.00 0.00 0.00 42 1012.1
20260507125011 13 0 0.0 1.6 0.00 0.00 0.00 41 1012.2
20260507124529 13 0 0.0 1.6 0.00 0.00 0.00 41 1012.1
20260507124012 13 0 0.0 1.6 0.00 0.00 0.00 41 1012.2
20260507123511 13 0 0.0 1.6 0.00 0.00 0.00 41 1012.3
20260507123031 13 0 0.0 0.0 0.00 0.00 0.00 41 1012.1
20260507122510 13 0 0.0 0.0 0.00 0.00 0.00 41 1012.2
20260507122013 13 0 0.0 0.0 0.00 0.00 0.00 39 1012.3
20260507121531 14 0 0.0 0.0 0.00 0.00 0.00 39 1012.0
20260507121012 14 0 0.0 0.0 0.00 0.00 0.00 39 1012.1
20260507120511 14 0 0.0 0.0 0.00 0.00 0.00 38 1012.0
20260507120028 14 0 0.0 1.6 0.00 0.00 0.00 37 1012.0
20260507115512 15 0 0.0 1.6 0.00 0.00 0.00 37 1012.0
20260507115010 15 291 0.0 1.6 0.00 0.00 0.00 37 1012.0
20260507114530 15 0 0.0 3.2 0.00 0.00 0.00 37 1012.2
20260507114010 15 0 0.0 3.2 0.00 0.00 0.00 38 1012.0
20260507113511 15 0 0.0 4.8 0.00 0.00 0.00 38 1012.0
20260507113029 15 0 0.0 4.8 0.00 0.00 0.00 37 1012.2
20260507112514 15 291 0.0 4.8 0.00 0.00 0.00 35 1012.3
20260507112013 15 0 0.0 3.2 0.00 0.00 0.00 35 1012.3
20260507111530 15 0 0.0 3.2 0.00 0.00 0.00 35 1012.3
20260507111010 15 0 0.0 0.0 0.00 0.00 0.00 36 1012.3
20260507110509 15 0 0.0 0.0 0.00 0.00 0.00 35 1012.4
20260507110030 15 0 0.0 0.0 0.00 0.00 0.00 35 1012.3
20260507105509 15 0 0.0 0.0 0.00 0.00 0.00 34 1012.3
20260507105013 15 0 0.0 4.8 0.00 0.00 0.00 34 1012.3
20260507104530 15 0 0.0 4.8 0.00 0.00 0.00 34 1012.4
20260507104011 15 291 1.6 4.8 0.00 0.00 0.00 35 1012.4
20260507103510 15 0 0.0 3.2 0.00 0.00 0.00 36 1012.4
20260507103029 15 0 0.0 3.2 0.00 0.00 0.00 36 1012.5
20260507102510 16 0 0.0 1.6 0.00 0.00 0.00 36 1012.4
20260507102011 16 0 0.0 4.8 0.00 0.00 0.00 35 1012.4
20260507101530 16 0 0.0 4.8 0.00 0.00 0.00 36 1012.5
20260507101009 16 0 1.6 4.8 0.00 0.00 0.00 36 1012.5
20260507100512 16 0 0.0 1.6 0.00 0.00 0.00 35 1012.4
20260507100035 16 0 0.0 1.6 0.00 0.00 0.00 35 1012.5
20260507095510 16 0 0.0 3.2 0.00 0.00 0.00 35 1012.4
20260507095013 16 0 0.0 3.2 0.00 0.00 0.00 35 1012.5
20260507094531 16 294 1.6 3.2 0.00 0.00 0.00 35 1012.5
20260507094016 16 294 0.0 3.2 0.00 0.00 0.00 35 1012.5
20260507093509 16 0 0.0 3.2 0.00 0.00 0.00 35 1012.4
20260507093028 16 0 0.0 3.2 0.00 0.00 0.00 34 1012.5
20260507092512 16 0 0.0 1.6 0.00 0.00 0.00 34 1012.4
20260507092011 16 0 0.0 1.6 0.00 0.00 0.00 33 1012.6
20260507091534 16 0 0.0 1.6 0.00 0.00 0.00 33 1012.6
20260507091011 16 0 0.0 1.6 0.00 0.00 0.00 33 1012.5
20260507090511 16 0 0.0 1.6 0.00 0.00 0.00 33 1012.7
20260507090027 16 0 0.0 1.6 0.00 0.00 0.00 33 1012.6
20260507085511 16 0 0.0 1.6 0.00 0.00 0.00 33 1012.7
20260507085011 16 0 0.0 3.2 0.00 0.00 0.00 33 1012.6
20260507084531 16 0 0.0 3.2 0.00 0.00 0.00 34 1012.7
20260507084010 16 0 0.0 0.0 0.00 0.00 0.00 34 1012.7
20260507083510 16 0 0.0 1.6 0.00 0.00 0.00 34 1012.7
20260507083026 16 0 0.0 1.6 0.00 0.00 0.00 34 1012.8
20260507082514 16 0 0.0 1.6 0.00 0.00 0.00 34 1012.8
20260507082012 16 0 0.0 1.6 0.00 0.00 0.00 34 1012.9
20260507081529 16 0 0.0 0.0 0.00 0.00 0.00 33 1012.8
20260507081010 16 0 0.0 0.0 0.00 0.00 0.00 33 1012.9
20260507080513 17 0 0.0 0.0 0.00 0.00 0.00 33 1012.9
20260507080029 17 0 0.0 0.0 0.00 0.00 0.00 32 1013.0
20260507075511 17 0 0.0 0.0 0.00 0.00 0.00 32 1013.0
20260507075011 17 0 0.0 1.6 0.00 0.00 0.00 31 1013.1
20260507074530 17 0 0.0 1.6 0.00 0.00 0.00 31 1013.0
20260507074014 17 0 0.0 1.6 0.00 0.00 0.00 31 1013.0
20260507073511 17 0 0.0 1.6 0.00 0.00 0.00 30 1013.1
20260507073032 17 0 0.0 0.0 0.00 0.00 0.00 30 1013.1
20260507072513 17 0 0.0 0.0 0.00 0.00 0.00 30 1013.0
20260507072011 17 0 0.0 1.6 0.00 0.00 0.00 31 1013.1
20260507071533 17 0 0.0 1.6 0.00 0.00 0.00 31 1013.0
20260507071011 17 0 0.0 0.0 0.00 0.00 0.00 31 1013.1
20260507070510 17 0 0.0 0.0 0.00 0.00 0.00 31 1012.9
20260507070034 18 0 0.0 0.0 0.00 0.00 0.00 31 1012.9
20260507065510 18 0 0.0 0.0 0.00 0.00 0.00 32 1012.9
20260507065010 18 0 0.0 0.0 0.00 0.00 0.00 32 1013.0
20260507064544 18 0 0.0 0.0 0.00 0.00 0.00 33 1013.1
20260507064112 18 0 0.0 0.0 0.00 0.00 0.00 33 1012.9
20260507063511 18 0 0.0 0.0 0.00 0.00 0.00 32 1013.1
20260507063034 18 0 0.0 0.0 0.00 0.00 0.00 32 1013.2
20260507062517 18 0 0.0 0.0 0.00 0.00 0.00 32 1013.0
20260507062011 18 0 0.0 0.0 0.00 0.00 0.00 32 1013.0
20260507061531 18 0 0.0 1.6 0.00 0.00 0.00 32 1012.9
20260507061012 18 0 0.0 1.6 0.00 0.00 0.00 32 1013.0
20260507060511 18 0 0.0 0.0 0.00 0.00 0.00 31 1012.9
20260507060028 18 0 0.0 0.0 0.00 0.00 0.00 31 1012.9
20260507055511 18 0 0.0 0.0 0.00 0.00 0.00 31 1012.9
20260507055012 19 0 0.0 0.0 0.00 0.00 0.00 30 1013.1
20260507054530 19 0 0.0 0.0 0.00 0.00 0.00 30 1013.1
20260507054013 20 0 0.0 0.0 0.00 0.00 0.00 29 1013.0
20260507053510 20 0 0.0 0.0 0.00 0.00 0.00 29 1013.0
20260507053028 20 0 0.0 0.0 0.00 0.00 0.00 29 1013.1
20260507052509 20 0 0.0 1.6 0.00 0.00 0.00 29 1012.8
20260507052010 20 0 0.0 1.6 0.00 0.00 0.00 28 1012.9
20260507051528 20 0 0.0 3.2 0.00 0.00 0.00 28 1012.9
20260507051009 20 0 0.0 3.2 0.00 0.00 0.00 28 1012.9
20260507050511 20 292 0.0 1.6 0.00 0.00 0.00 29 1012.7
20260507050038 20 292 0.0 1.6 0.00 0.00 0.00 29 1012.6
20260507045515 20 0 0.0 1.6 0.00 0.00 0.00 29 1012.7
20260507045014 20 0 0.0 0.0 0.00 0.00 0.00 29 1012.8
20260507044527 20 0 0.0 0.0 0.00 0.00 0.00 29 1012.7
20260507044010 20 0 0.0 0.0 0.00 0.00 0.00 30 1012.7
20260507043510 21 0 0.0 0.0 0.00 0.00 0.00 30 1012.6
20260507043030 21 0 0.0 0.0 0.00 0.00 0.00 31 1012.6
20260507042510 21 0 0.0 0.0 0.00 0.00 0.00 31 1012.7
20260507042009 20 0 0.0 0.0 0.00 0.00 0.00 31 1012.5
20260507041530 20 0 0.0 0.0 0.00 0.00 0.00 30 1012.5
20260507041010 21 0 0.0 0.0 0.00 0.00 0.00 29 1012.5
20260507040513 21 0 0.0 0.0 0.00 0.00 0.00 29 1012.3
20260507040029 21 0 0.0 0.0 0.00 0.00 0.00 28 1012.3
20260507035511 21 0 0.0 0.0 0.00 0.00 0.00 28 1012.3
20260507035011 21 0 0.0 0.0 0.00 0.00 0.00 28 1012.2
20260507034529 21 0 0.0 0.0 0.00 0.00 0.00 27 1012.3
20260507034012 22 0 0.0 0.0 0.00 0.00 0.00 27 1012.2
20260507033508 22 0 0.0 0.0 0.00 0.00 0.00 26 1012.2
20260507033030 22 0 0.0 0.0 0.00 0.00 0.00 26 1012.0
20260507032511 22 0 0.0 1.6 0.00 0.00 0.00 26 1012.0
20260507032014 22 0 0.0 1.6 0.00 0.00 0.00 25 1012.0
20260507031533 22 0 0.0 1.6 0.00 0.00 0.00 25 1012.0
20260507031010 23 0 0.0 0.0 0.00 0.00 0.00 24 1011.9
20260507030516 23 0 0.0 0.0 0.00 0.00 0.00 24 1011.8
20260507030030 23 0 0.0 0.0 0.00 0.00 0.00 24 1011.7
20260507025511 23 0 0.0 0.0 0.00 0.00 0.00 24 1011.7
20260507025010 24 0 0.0 0.0 0.00 0.00 0.00 23 1011.6
20260507024530 24 0 0.0 0.0 0.00 0.00 0.00 23 1011.6
20260507024009 25 0 0.0 0.0 0.00 0.00 0.00 23 1011.6
20260507023510 25 0 0.0 1.6 0.00 0.00 0.00 22 1011.6
20260507023030 25 0 0.0 1.6 0.00 0.00 0.00 22 1011.5
20260507022509 25 0 0.0 1.6 0.00 0.00 0.00 21 1011.4
20260507022011 25 0 0.0 3.2 0.00 0.00 0.00 21 1011.4
20260507021527 25 0 0.0 3.2 0.00 0.00 0.00 21 1011.3
20260507021011 26 0 0.0 4.8 0.00 0.00 0.00 21 1011.4
20260507020509 26 0 0.0 4.8 0.00 0.00 0.00 20 1011.1
20260507020029 26 292 0.0 4.8 0.00 0.00 0.00 20 1011.2
20260507015511 26 0 0.0 3.2 0.00 0.00 0.00 19 1011.3
20260507015013 26 293 0.0 3.2 0.00 0.00 0.00 19 1011.2
20260507014527 26 0 0.0 3.2 0.00 0.00 0.00 19 1011.3
20260507014011 27 0 0.0 4.8 0.00 0.00 0.00 18 1011.2
20260507013510 27 294 0.0 4.8 0.00 0.00 0.00 18 1011.3
20260507013031 27 294 0.0 6.4 0.00 0.00 0.00 18 1011.2
20260507012511 27 0 1.6 6.4 0.00 0.00 0.00 18 1011.1
20260507012011 27 298 3.2 8.0 0.00 0.00 0.00 18 1011.2
20260507011533 27 309 3.2 8.0 0.00 0.00 0.00 18 1011.2
20260507011009 27 306 3.2 9.7 0.00 0.00 0.00 18 1011.2
20260507010511 27 310 3.2 11.3 0.00 0.00 0.00 18 1011.2
20260507010038 28 271 4.8 14.5 0.00 0.00 0.00 18 1011.2